Temperature
24 24 24 24 24 23 24 25 25 25 24 23 21 20 19 18 18 17 17 17 16 17 17 17 17 18 18 18 18 18 18 17 17 16 16 16 16 16 16 15 15 14 14 14
23 23 23 23 23 23 23 24 24 23 23 22 20 19 18 18 18 17 17 16 16 16 16 16 17 17 17 17 17 17 17 17 16 16 16 16 16 15 15 15 15 15 14 14
24 23 23 23 24 23 23 23 23 23 23 21 20 19 18 17 17 17 16 15 15 15 15 16 16 16 16 16 16 16 16 16 16 16 16 16 16 15 15 15 15 15 15 15
24 23 22 24 22 22 22 22 22 22 21 20 19 17 17 16 16 16 15 15 15 14 15 15 15 15 15 15 15 15 15 15 15 15 15 15 15 15 15 15 15 15 15 15
23 23 23 22 21 21 22 21 21 21 20 19 17 17 17 15 15 15 14 14 14 14 14 14 14 14 14 14 14 14 14 14 14 14 14 14 15 15 14 15 15 15 15 15
22 22 23 23 22 20 22 22 20 20 19 18 18 20 19 15 14 14 14 14 14 14 13 13 13 13 13 14 14 13 13 13 13 13 13 14 14 14 14 14 14 14 14 15
22 22 23 22 20 20 22 22 20 19 19 18 19 20 17 15 14 14 14 13 13 13 13 13 13 12 13 13 13 13 12 12 13 13 13 13 13 13 13 13 13 13 14 14
22 22 22 20 20 21 22 20 19 18 18 18 18 16 15 14 14 13 13 13 13 12 12 12 12 12 12 12 12 12 12 12 12 12 12 12 12 12 12 13 13 13 13 13
22 22 20 19 20 19 18 19 18 18 17 17 16 15 14 14 13 13 13 12 12 12 12 12 12 11 11 11 11 11 11 11 11 11 11 11 11 11 11 12 12 12 12 12
20 20 19 18 17 17 17 18 17 17 16 16 15 15 14 13 13 13 12 12 12 11 11 11 11 11 11 11 10 10 10 10 10 10 10 10 10 11 11 11 11 11 11 11
20 20 18 17 17 17 16 16 16 16 15 15 15 14 14 13 13 12 12 12 11 11 11 11 11 10 10 10 10 10 10 10 10 10 10 10 10 10 10 10 10 10 10 10
20 20 20 19 17 16 16 15 15 15 14 14 14 14 13 13 12 12 12 11 11 11 11 11 10 10 10 10 10 9 9 9 9 9 9 9 9 9 9 9 10 10 10 10
18 17 17 16 16 15 15 15 15 14 14 14 13 13 13 12 12 12 11 11 11 10 10 10 10 10 10 9 9 9 9 9 9 8 8 8 8 8 8 9 9 9 9 10
15 15 15 15 15 15 14 14 14 14 13 13 13 12 12 12 11 11 11 11 10 10 10 10 10 9 9 9 9 8 8 8 8 8 8 8 8 8 7 7 8 8 8 9
14 14 15 14 14 14 14 13 13 13 13 12 12 12 12 11 11 11 11 10 10 10 9 9 9 9 9 8 8 8 8 8 7 7 7 7 7 7 7 7 7 7 7 8
14 13 13 13 13 13 13 13 13 13 12 12 12 11 11 11 11 10 10 10 10 9 9 9 9 9 8 8 8 8 8 7 7 7 7 7 7 7 7 7 7 7 7 7
13 13 13 13 13 12 12 12 12 12 12 11 11 11 11 10 10 10 10 10 9 9 9 9 9 8 8 8 8 7 7 7 7 6 6 7 6 6 6 6 6 6 6 6
13 13 12 12 12 12 12 12 11 11 11 11 11 10 10 10 10 10 9 9 9 9 9 9 8 8 8 7 7 7 7 7 6 6 6 6 6 6 6 6 6 6 6 6
11 11 11 11 11 11 11 11 11 11 11 10 10 10 10 10 9 9 9 9 9 8 8 8 8 8 7 7 7 6 6 6 6 6 6 6 5 5 5 5 5 5 5 5
11 11 11 11 11 11 10 10 10 10 10 10 10 9 9 9 9 9 8 8 8 8 8 8 8 7 7 7 6 6 6 6 6 6 6 5 5 5 5 5 5 5 5 5
10 10 10 10 10 10 10 10 10 10 10 10 9 9 9 9 9 8 8 8 8 8 8 7 7 7 7 6 6 6 6 6 5 5 5 5 5 5 5 5 5 4 4 4
9 9 9 9 9 9 9 9 9 9 9 9 9 9 8 8 8 8 8 8 8 8 7 7 7 7 6 6 6 6 5 5 5 5 5 5 4 4 4 4 4 4 4 4
9 9 9 9 9 9 9 9 9 9 9 8 8 8 8 8 8 7 7 8 7 7 7 7 7 6 6 5 5 5 5 5 5 5 4 4 4 4 4 4 3 3 3 3
8 8 8 8 8 8 8 8 8 8 8 8 8 8 8 7 7 7 7 7 7 7 6 6 6 6 6 5 5 5 5 5 4 4 4 4 4 3 3 3 3 3 2 2
7 7 7 7 7 7 8 8 7 7 7 7 7 7 7 7 7 7 7 6 6 6 6 6 6 6 5 5 5 5 4 4 4 4 3 3 3 3 3 2 2 2 2 2
7 7 7 7 7 7 7 7 7 7 7 7 7 7 6 6 6 6 6 6 6 6 5 5 5 5 5 5 4 4 4 4 4 3 3 3 3 2 2 2 2 2 2 2
6 6 6 6 6 6 6 6 6 6 6 6 6 6 6 6 6 5 5 5 5 5 5 5 5 5 4 4 4 4 4 3 3 3 3 2 2 2 2 2 1 1 2 2
Wind_Speed
3 4 3 4 6 7 7 6 6 5 6 6 7 7 6 6 7 8 9 10 10 10 10 10 10 9 9 8 6 5 4 4 5 6 7 8 8 9 10 10 11 10 10 10
4 3 3 5 6 8 8 6 6 5 5 5 7 8 8 7 7 7 8 9 9 10 10 11 11 10 9 9 7 6 5 5 5 6 6 7 8 9 10 11 11 11 12 12
6 4 4 9 9 10 7 7 8 8 6 10 10 9 8 7 6 7 7 7 8 8 9 9 10 10 10 9 8 7 7 7 7 7 7 7 8 8 9 10 11 12 13 12
5 5 9 1 3 4 6 5 5 3 6 11 10 9 7 6 5 5 5 5 6 6 7 8 8 9 8 8 9 9 9 9 8 8 8 8 8 8 9 9 10 11 12 13
6 7 6 3 5 7 7 5 6 7 9 10 11 10 7 5 4 4 4 4 4 5 6 7 8 8 8 8 9 10 10 10 10 9 9 9 9 9 9 9 10 11 11 13
7 7 6 3 7 5 5 5 7 9 11 12 12 8 6 7 5 4 3 2 2 3 4 6 7 7 8 8 9 10 10 10 10 10 10 10 10 10 9 8 9 10 11 12
10 8 5 5 8 8 8 3 10 10 12 13 10 3 7 9 6 4 3 1 1 2 3 4 6 6 7 8 9 9 9 10 10 10 10 10 10 9 9 8 9 9 10 11
9 9 6 9 10 8 3 7 9 9 11 11 7 6 8 8 6 4 3 1 0 1 3 4 5 6 7 8 9 9 9 9 10 10 10 9 10 10 9 9 9 9 10 10
6 3 5 8 6 3 4 6 7 8 9 9 8 8 8 7 6 4 3 2 2 2 3 4 4 6 7 8 8 9 9 10 10 11 10 10 10 10 9 8 8 9 8 9
4 5 5 6 5 5 4 5 6 7 9 10 9 8 8 7 6 5 4 3 3 4 4 5 5 6 7 7 8 10 10 11 10 11 11 10 9 8 8 8 9 9 10 10
6 5 5 7 8 7 6 5 6 6 8 9 9 9 8 7 7 6 5 4 4 5 5 6 6 7 7 8 9 10 11 11 11 10 10 10 10 9 9 9 9 11 11 11
6 7 7 7 8 9 8 8 8 8 8 8 8 9 8 7 7 6 6 5 5 6 6 7 7 8 8 9 9 10 10 10 9 9 9 10 11 11 9 10 12 14 15 14
3 3 4 4 6 8 9 8 8 8 8 8 8 8 8 8 7 7 7 7 7 7 7 8 8 9 9 9 10 11 11 11 10 10 10 10 11 11 13 11 11 13 14 15
6 5 5 6 7 7 8 8 8 8 8 8 8 8 8 8 8 8 8 8 8 8 9 9 9 10 10 10 10 11 12 10 10 10 10 11 11 12 12 13 14 13 12 12
10 9 7 6 6 7 7 7 8 8 8 9 8 9 9 10 10 10 9 8 8 9 10 10 11 11 10 10 11 12 11 10 10 11 11 12 12 12 12 14 14 14 14 13
8 8 8 8 8 8 8 9 10 10 9 10 10 10 10 10 10 10 9 9 10 11 10 11 12 12 11 11 12 11 11 11 12 12 12 12 12 12 13 13 14 14 14 14
10 10 10 10 9 10 10 10 10 10 10 10 11 10 10 10 10 11 10 10 11 12 11 12 12 11 11 12 12 11 11 11 12 12 12 12 12 13 13 13 14 14 14 14
11 10 9 9 8 9 9 9 9 10 10 10 10 10 11 11 12 12 12 11 12 12 12 12 12 12 12 12 12 11 11 12 12 12 12 12 13 13 14 14 15 16 15 14
8 8 8 8 8 8 8 8 9 9 9 9 10 11 12 12 12 12 12 12 13 14 13 13 11 12 14 13 11 11 12 13 13 13 13 13 13 14 14 15 15 15 15 15
5 5 5 6 6 7 7 8 8 8 8 9 10 11 12 12 12 12 12 13 12 12 13 12 12 13 14 13 11 12 13 14 14 14 14 14 14 15 15 15 16 16 16 15
3 3 4 4 5 6 7 8 8 8 8 9 10 11 12 13 12 12 12 13 13 13 13 11 12 12 12 11 12 13 14 14 14 14 14 14 15 15 15 16 16 16 16 15
2 3 4 4 5 6 7 7 8 9 9 9 10 11 12 13 13 13 14 13 13 11 11 11 11 12 12 13 13 13 14 14 14 14 14 14 14 15 15 16 16 16 16 15
4 5 5 6 7 8 8 8 9 9 10 10 11 11 12 12 11 12 13 11 11 11 11 11 12 13 14 13 13 14 14 15 15 14 14 14 14 15 15 16 15 15 16 15
7 7 7 7 8 9 10 10 9 9 10 11 11 12 12 11 11 11 12 11 12 12 12 12 13 15 15 12 13 13 14 14 14 14 14 14 14 14 15 15 15 15 15 17
8 9 9 9 9 9 10 10 10 10 10 10 12 12 11 11 12 12 12 13 12 11 12 13 14 15 13 13 13 13 13 13 14 14 14 14 14 14 14 14 15 15 15 15
10 9 9 10 10 9 9 9 9 9 10 10 11 11 11 10 11 11 10 12 14 12 12 11 11 11 11 12 13 13 13 13 13 13 14 14 15 15 14 14 17 15 15 15
11 10 9 9 10 10 9 10 10 11 11 11 12 11 11 11 11 11 12 11 11 11 11 10 10 10 11 11 12 12 12 12 12 13 13 13 13 13 13 15 14 14 14 14
Wind_Direction
101 98 160 189 190 198 222 240 238 204 182 168 159 145 126 109 93 77 62 50 42 37 33 29 25 20 20 16 10 359 343 319 301 288 276 268 262 255 252 249 247 246 249 248
163 143 190 220 216 213 222 229 224 197 191 145 141 141 133 118 101 81 64 51 43 37 33 28 24 19 20 19 14 7 357 342 330 313 298 284 273 265 256 252 250 247 246 246
215 176 235 244 229 213 209 210 206 211 189 151 153 152 141 126 108 88 70 54 43 36 30 25 22 19 19 16 15 13 6 357 346 329 314 301 290 276 265 257 252 248 245 243
227 211 239 204 98 179 189 201 207 191 150 163 159 148 138 129 119 101 80 60 46 35 29 23 20 19 16 16 15 12 7 359 350 339 326 315 302 289 278 267 256 249 246 243
224 233 249 206 175 176 182 189 187 177 156 150 146 149 152 143 131 110 91 68 49 30 23 19 15 10 7 11 11 9 4 355 348 340 332 324 314 302 293 282 270 259 251 245
215 228 239 178 152 167 187 195 174 171 162 158 165 187 177 161 156 137 112 76 45 25 18 15 8 0 358 1 4 2 354 347 343 338 332 325 319 313 304 291 281 273 262 253
221 231 244 131 145 164 201 186 159 172 168 171 186 197 136 152 159 152 140 110 35 8 9 4 354 349 350 354 355 350 344 340 339 336 330 325 322 318 311 301 292 283 275 264
209 223 223 145 161 190 133 113 155 170 176 180 175 138 144 156 162 165 167 176 277 332 345 344 340 339 341 346 344 340 336 334 334 334 331 328 323 318 314 309 299 292 287 280
210 205 97 159 168 136 133 150 161 171 176 177 173 169 168 172 176 185 196 215 258 297 308 316 326 331 331 334 330 329 328 328 327 326 328 326 322 318 315 313 307 301 297 291
217 208 177 179 176 170 170 170 166 173 176 180 184 182 183 187 194 204 216 229 252 271 285 301 312 314 315 319 319 319 321 322 322 323 324 323 320 317 317 314 312 307 302 297
221 196 185 200 200 190 182 178 173 177 184 188 190 192 195 201 206 213 222 231 248 266 282 293 301 305 308 311 313 313 313 314 316 318 316 315 315 313 307 305 304 300 301 298
217 197 198 194 186 187 189 190 188 187 192 197 201 203 205 211 213 219 228 238 251 263 273 285 294 299 303 305 306 307 309 311 312 312 312 311 311 309 289 277 282 275 274 281
232 180 203 185 186 192 200 201 199 202 202 205 208 211 214 219 220 226 234 242 252 263 273 282 288 292 297 300 300 300 301 304 306 306 307 307 307 308 310 302 283 272 271 274
212 193 205 201 201 202 207 209 210 215 215 216 217 218 221 225 228 231 238 245 253 263 270 277 282 287 293 297 297 294 296 297 296 297 299 300 302 304 305 307 309 308 297 283
212 215 219 211 207 206 208 210 214 220 221 223 223 224 225 228 232 238 244 248 253 260 267 274 278 283 289 291 292 293 294 295 298 299 297 296 298 299 300 301 302 304 306 303
208 209 213 215 217 215 213 215 222 227 228 229 228 229 231 236 241 244 244 245 250 259 268 273 276 281 285 286 289 290 289 285 286 292 293 293 295 296 298 300 301 301 303 305
212 216 216 220 221 220 221 225 230 234 235 235 235 236 237 239 242 244 246 248 254 262 267 270 274 279 281 282 286 288 289 287 282 285 288 291 293 295 296 296 297 298 298 300
224 226 224 225 226 226 228 230 234 239 242 243 242 241 239 239 244 248 252 255 259 263 266 270 275 280 279 279 283 286 287 288 288 289 289 289 291 293 293 293 294 295 295 297
215 221 225 229 232 233 235 237 241 245 247 246 244 242 243 245 249 254 258 258 260 264 268 273 275 275 277 278 281 281 281 284 287 287 287 286 285 286 289 291 292 293 294 295
210 218 226 232 236 239 242 244 246 248 249 248 247 247 249 251 253 256 258 259 258 263 271 277 278 277 278 278 278 280 281 283 285 287 288 288 288 289 290 291 292 293 292 292
211 224 233 242 248 248 249 250 249 250 251 248 247 250 253 256 257 258 259 262 264 265 269 270 270 272 274 279 278 278 279 282 284 285 287 287 288 289 290 291 292 292 291 290
248 249 255 259 260 260 257 255 253 254 254 253 254 256 259 260 260 260 259 261 268 265 266 267 268 270 273 279 277 278 279 281 283 285 286 286 287 289 290 291 292 292 291 290
270 269 268 266 266 268 266 259 255 254 253 254 256 257 259 262 263 264 267 267 269 267 266 268 269 270 272 274 277 279 280 281 283 285 286 287 288 289 290 290 290 290 290 290
273 270 269 268 268 267 266 264 261 258 257 259 258 258 261 265 265 262 266 267 263 265 267 267 264 267 271 274 277 279 281 283 284 286 287 288 289 289 289 289 289 290 289 288
271 270 268 266 263 262 264 266 265 263 263 263 265 263 263 262 265 270 271 273 269 264 267 268 265 266 269 274 276 278 281 283 285 288 289 289 289 290 289 290 290 290 289 288
270 268 266 262 261 263 262 262 262 264 265 266 267 268 268 267 268 267 268 269 269 266 267 271 270 268 271 275 276 277 280 282 283 283 284 288 289 290 290 290 290 289 288 287
268 267 266 263 260 257 258 259 261 264 265 266 269 272 273 273 270 267 268 270 270 269 267 269 271 272 273 274 275 277 278 280 282 284 286 288 289 289 288 289 290 290 289 288
Height
1493 1495 1495 1497 1500 1502 1500 1498 1501 1503 1508 1511 1516 1521 1524 1525 1526 1526 1525 1524 1522 1521 1520 1519 1517 1515 1513 1512 1511 1510 1509 1508 1507 1506 1506 1505 1505 1505 1504 1504 1504 1504 1505 1504
1498 1499 1498 1499 1499 1500 1501 1501 1501 1504 1509 1511 1517 1520 1523 1524 1525 1525 1525 1524 1523 1522 1521 1519 1518 1516 1514 1512 1510 1509 1508 1506 1505 1504 1503 1502 1501 1501 1500 1500 1500 1500 1500 1500
1495 1499 1499 1500 1494 1497 1499 1499 1500 1503 1505 1512 1516 1519 1521 1523 1524 1525 1525 1524 1523 1522 1521 1520 1518 1516 1514 1512 1510 1509 1507 1505 1503 1502 1500 1499 1497 1496 1495 1495 1495 1494 1494 1495
1494 1500 1508 1493 1495 1495 1498 1500 1501 1502 1506 1510 1514 1519 1521 1523 1524 1524 1524 1524 1523 1522 1521 1520 1518 1516 1514 1512 1510 1508 1506 1504 1502 1499 1497 1496 1494 1492 1491 1490 1489 1488 1488 1489
1495 1498 1495 1494 1494 1496 1497 1499 1501 1503 1507 1511 1514 1518 1520 1522 1522 1523 1523 1523 1522 1521 1520 1519 1517 1515 1514 1512 1510 1507 1505 1502 1500 1497 1495 1492 1490 1488 1487 1485 1484 1483 1482 1482
1495 1499 1497 1488 1490 1494 1496 1498 1499 1501 1505 1509 1512 1512 1515 1519 1520 1521 1521 1521 1520 1519 1518 1517 1515 1514 1512 1510 1508 1505 1503 1500 1497 1495 1492 1490 1487 1485 1482 1480 1478 1477 1476 1475
1492 1492 1484 1486 1491 1495 1498 1492 1496 1499 1502 1506 1508 1508 1512 1515 1517 1518 1518 1518 1518 1517 1516 1515 1513 1512 1510 1508 1506 1503 1500 1498 1495 1492 1489 1487 1484 1481 1478 1476 1474 1472 1470 1469
1488 1491 1487 1488 1490 1490 1489 1492 1495 1498 1501 1504 1507 1509 1510 1512 1514 1515 1516 1516 1515 1515 1514 1512 1511 1510 1508 1506 1503 1500 1497 1495 1492 1489 1486 1483 1480 1477 1474 1472 1469 1467 1465 1463
1479 1481 1483 1486 1487 1489 1491 1492 1495 1497 1500 1503 1505 1507 1509 1510 1511 1512 1513 1513 1513 1512 1511 1510 1508 1507 1505 1502 1500 1497 1495 1492 1489 1486 1483 1480 1477 1473 1471 1468 1465 1463 1460 1458
1480 1480 1484 1486 1487 1489 1490 1492 1494 1496 1498 1500 1502 1504 1506 1508 1509 1509 1510 1510 1509 1509 1508 1507 1505 1503 1501 1499 1497 1494 1492 1489 1485 1483 1479 1476 1473 1470 1467 1464 1461 1458 1456 1453
1477 1479 1483 1484 1485 1487 1489 1491 1493 1494 1496 1498 1500 1502 1503 1504 1505 1506 1506 1506 1506 1505 1504 1503 1501 1499 1498 1495 1493 1490 1488 1485 1482 1479 1475 1472 1469 1466 1462 1460 1457 1454 1451 1448
1472 1474 1476 1479 1482 1484 1486 1488 1490 1492 1494 1495 1497 1498 1500 1501 1501 1502 1502 1502 1502 1501 1500 1499 1497 1495 1493 1491 1489 1486 1484 1481 1478 1474 1471 1467 1464 1461 1457 1454 1451 1448 1445 1442
1471 1473 1475 1477 1479 1481 1483 1485 1487 1489 1490 1492 1493 1495 1496 1496 1497 1497 1497 1497 1497 1496 1495 1494 1492 1490 1489 1487 1484 1481 1479 1476 1473 1470 1466 1463 1459 1455 1451 1447 1444 1441 1437 1434
1469 1471 1473 1475 1477 1479 1480 1482 1484 1485 1487 1488 1489 1490 1491 1492 1492 1492 1493 1492 1492 1491 1490 1489 1487 1485 1484 1481 1479 1476 1474 1471 1468 1464 1461 1458 1455 1451 1446 1442 1438 1433 1430 1427
1466 1468 1470 1471 1473 1475 1477 1478 1480 1481 1482 1484 1484 1485 1486 1487 1487 1487 1487 1487 1486 1486 1485 1483 1482 1480 1478 1476 1473 1471 1468 1466 1463 1459 1456 1453 1449 1446 1442 1437 1433 1428 1424 1421
1462 1464 1465 1467 1469 1471 1472 1474 1475 1476 1478 1478 1479 1480 1481 1481 1482 1482 1482 1481 1481 1480 1479 1477 1476 1474 1472 1470 1467 1465 1462 1459 1456 1453 1450 1447 1443 1440 1436 1432 1427 1423 1419 1415
1458 1459 1461 1462 1464 1466 1467 1469 1470 1471 1472 1473 1474 1474 1475 1475 1476 1475 1475 1475 1474 1473 1472 1471 1469 1467 1466 1464 1461 1459 1456 1453 1450 1447 1444 1441 1437 1433 1430 1425 1421 1417 1413 1409
1453 1454 1456 1458 1459 1461 1462 1464 1465 1466 1467 1467 1468 1469 1469 1469 1469 1469 1469 1469 1468 1466 1465 1464 1463 1461 1459 1457 1455 1452 1449 1446 1443 1440 1437 1433 1430 1427 1423 1419 1414 1410 1406 1402
1448 1450 1452 1453 1455 1457 1458 1459 1460 1461 1461 1462 1462 1462 1462 1463 1463 1463 1463 1462 1460 1459 1458 1457 1455 1453 1452 1450 1448 1445 1442 1439 1436 1433 1430 1426 1422 1419 1416 1412 1407 1403 1399 1395
1445 1446 1448 1449 1450 1452 1453 1453 1454 1455 1455 1456 1456 1456 1456 1456 1456 1456 1455 1454 1452 1451 1451 1449 1447 1446 1444 1442 1440 1438 1435 1432 1429 1425 1422 1418 1415 1411 1408 1404 1400 1396 1392 1387
1441 1443 1444 1445 1446 1447 1448 1448 1449 1449 1449 1450 1450 1450 1450 1450 1449 1449 1447 1446 1445 1444 1442 1441 1439 1438 1436 1434 1431 1429 1427 1424 1421 1418 1414 1410 1407 1403 1399 1396 1392 1388 1384 1379
1439 1439 1440 1441 1442 1442 1443 1443 1443 1443 1443 1443 1443 1443 1443 1442 1442 1440 1439 1438 1437 1436 1434 1432 1431 1429 1428 1426 1423 1421 1419 1416 1413 1409 1406 1402 1399 1395 1391 1387 1383 1379 1375 1371
1436 1436 1436 1437 1437 1437 1437 1437 1437 1437 1437 1437 1437 1436 1436 1435 1434 1433 1431 1430 1429 1427 1426 1424 1422 1421 1419 1417 1415 1413 1410 1407 1404 1401 1398 1394 1390 1386 1382 1378 1374 1370 1366 1362
1432 1432 1432 1432 1432 1432 1432 1431 1431 1431 1430 1430 1430 1429 1429 1427 1426 1424 1423 1422 1420 1419 1417 1415 1414 1412 1410 1409 1407 1405 1402 1399 1396 1393 1390 1386 1382 1378 1374 1370 1365 1361 1357 1353
1426 1426 1426 1426 1426 1426 1426 1426 1425 1424 1424 1423 1422 1422 1421 1419 1418 1416 1415 1414 1412 1410 1409 1407 1406 1404 1402 1401 1399 1396 1394 1391 1388 1385 1381 1377 1373 1369 1365 1361 1357 1352 1348 1344
1421 1421 1420 1420 1420 1420 1420 1419 1418 1418 1417 1416 1414 1414 1413 1411 1410 1408 1407 1405 1404 1402 1401 1399 1398 1396 1394 1392 1390 1388 1385 1382 1379 1376 1372 1369 1365 1361 1357 1352 1348 1343 1339 1334
1414 1414 1413 1413 1413 1413 1412 1412 1411 1410 1409 1408 1407 1406 1405 1403 1402 1400 1399 1397 1396 1394 1393 1392 1390 1388 1386 1384 1382 1379 1377 1374 1371 1368 1364 1360 1356 1352 1348 1344 1339 1334 1330 1326